Regional Weather Roundup
Issued by NWS Grand Forks, ND

Home | Current Version | Previous Version | Graphics & Text | Print | Product List | Glossary On
Versions: 1 2 3 4 5 6 7 8 9 10 11 12 13 14 15 16 17 18 19 20 21 22 23 24 25 26 27 28 29 30 31 32 33 34 35 36 37 38 39 40 41 42 43 44 45 46 47 48 49 50
000
ASUS43 KFGF 080331
RWRFGF
PRAIRIE TO PINES  WEATHER ROUNDUP
NATIONAL WEATHER SERVICE EASTERN NORTH DAKOTA/GRAND FORKS ND
900 PM CST SUN FEB 07 2016

 **SATELLITE DATA USED TO AUGMENT SKY COVER AT AUTOMATED STATIONS**
 *****  WEATHER ACROSS EASTERN NORTH DAKOTA  *****

CITY           SKY/WX    TMP DP  RH WIND       PRES   REMARKS
GRAND FORKS    LGT SNOW  15   7  70 N35G43    30.01R BLWGSNOWWCI  -7
GRAND FRKS AFB LGT SNOW  14   9  79 N25G32    30.02R WCI  -5
GRAND FRKS NWS   N/A     12 N/A N/A N26         N/A  WCI  -8
DEVILS LAKE    FLURRIES  19  14  81 N29G36    30.03S WCI   0
FARGO          SNOW      15  10  80 N36G44    30.01R VSB 1/2 WCI  -7
WAHPETON ARPT  CLOUDY    18  12  79 N21G36    29.98R WCI   1
$$

 ***** WEATHER ACROSS CENTRAL AND WESTERN NORTH DAKOTA  *****

CITY           SKY/WX    TMP DP  RH WIND       PRES   REMARKS
BISMARCK       MOCLDY    33  19  56 N29G41    30.13R WCI  19
MINOT          PTCLDY    29  16  58 NW24G36   30.14R WCI  15
JAMESTOWN      FLURRIES  23  14  68 NW37G46   30.01R WCI   4
MINOT AFB      MOCLDY    28  20  72 NW25G32   30.14R WCI  13
GARRISON         N/A     28  19  69 NW32G39   30.16R WCI  12
WILLISTON      CLEAR     30  19  63 NW20G29   30.29R WCI  17
DICKINSON      CLEAR     28  13  53 NW28G37   30.21R WCI  13
HETTINGER      CLEAR     29  14  53 NW28G33   30.23R WCI  14
$$

 *****  OTHER AIRPORT OBSERVATIONS IN OUR AREA  *****

CITY           SKY/WX    TMP DP  RH WIND       PRES   REMARKS
WALHALLA       FAIR      14  14 100 N23       30.06R WCI  -5
GRAFTON AIRPOR LGT SNOW  12  10  92 N30G43    30.06R WCI  -9
VALLEY CITY AR FLURRIES  19  12  73 N32G45    30.02R WCI   0
CANDO          FLURRIES  19  16  86 N28G36    30.08R WCI   1
CAVALIER APRT  MIX PCPN  12   9  85 N23G30    30.05R WCI  -7
GWINNER        CLOUDY    23  18  80 N24G32    30.01R WCI   7
SHEYENNE NWR     N/A     19  14  80 N16       29.95S WCI   4
ROLLA          FLURRIES  18  14  86 N35G45    30.06R WCI  -3
 ***** THE ABOVE OBSERVATIONS ARE NON NWS ARE NOT QUALITY
       CONTROLLED AND MAY MIS-REPORT RAIN FOR SNOW...
$$

  *****  WEATHER ACROSS NORTHERN MINNESOTA  *****

CITY           SKY/WX    TMP DP  RH WIND       PRES   REMARKS
FLAG ISLAND    CLOUDY     5   1  85 NW24      29.87R FOG     WCI -17
WARROAD        LGT SNOW   5   1  85 NW22      29.90R WCI -16
ROSEAU         LGT SNOW   7   1  78 NW23G30   29.93R WCI -14
HALLOCK        LGT SNOW  10   7  85 N24       30.01R WCI -10
THF RVR FALLS  NOT AVBL
BAUDETTE       CLOUDY     6   0  76 NW21G28   29.84R HAZE    WCI -14
WASKISH        LGT SNOW   9   3  78 NW13G21   29.84R WCI  -7
CROOKSTON      HVY SNOW  10   9  92 N37G43    30.00R VSB 1/4 WCI -14
STEPHEN NDAWN    N/A      9   7  92 N25         N/A  WCI -13
GREENBUSH NDAW   N/A      7   3  85 N18         N/A  WCI -12
$$
  *****  WEATHER ACROSS CENTRAL AND WEST MINNESOTA  *****

CITY           SKY/WX    TMP DP  RH WIND       PRES   REMARKS
FOSSTON        LGT SNOW   7   3  85 NW20      29.91R WCI -13
BEMIDJI        CLOUDY     8   3  81 NW18G24   29.83R FOG     WCI -11
PARK RAPIDS    LGT SNOW  10   3  73 NW23G33   29.80S WCI -10
ELBOW LAKE     CLOUDY    13   8  81 NW28G38   29.91R HAZE    WCI  -7
WADENA         FLURRIES   9   3  78 NW22G32   29.83R WCI -11
DETROIT LAKES  LGT SNOW  10   9  92 N37G46    29.90R WCI -14
MOORHEAD       MIX PCPN  12  10  92 N31       29.99R VSB 3/4 WCI -10
FERGUS FALLS   LGT SNOW  14  10  85 N35G49    29.95R VSB 1   WCI  -8
MORRIS MN      LGT SNOW  16  12  86 N29G40    29.90R VSB 1   WCI  -4
STAPLES        LGT SNOW  10   5  79 NW20G29   29.80S WCI  -8
$$
  *****  WEATHER ELSEWHERE ACROSS MINNESOTA  *****

CITY           SKY/WX    TMP DP  RH WIND       PRES   REMARKS
DULUTH         LGT SNOW  21  16  81 NW23G31   29.60R BLWGSNOWWCI   5
INTRNTL FALLS  LGT SNOW  13   9  84 W13       29.74R FOG     WCI  -2
ELY            LGT SNOW  27  25  93 N6        29.58R WCI  20
CLOQUET        CLOUDY    21  16  79 NW13G24   29.63R WCI   9
WHEATON        LGT SNOW  19  16  86 NW16G33   29.98R WCI   5
BRAINERD       LGT SNOW  13   7  77 NW16G28   29.76R WCI  -3
HIBBING        LGT SNOW  15  12  88 NW25G32   29.65R FOG     WCI  -4
ALEXANDRIA     LGT SNOW  12   7  80 NW20G36   29.84R VSB 3/4 WCI  -6
SAINT CLOUD    FLURRIES  16   8  71 NW21G32   29.77S WCI  -1
MINNEAPOLIS    LGT SNOW  20  12  71 NW28G36   29.75R WCI   2
$$

  *****  WEATHER ACROSS SOUTH DAKOTA  *****

CITY           SKY/WX    TMP DP  RH WIND       PRES   REMARKS
SIOUX FALLS    LGT SNOW  25  20  81 N20G30    29.97R WCI  11
BROOKINGS      FLURRIES  22  16  78 N28G36    29.91F WCI   4
WATERTOWN      LGT SNOW  21  15  78 NW32G38   29.93R WCI   2
HURON          MOCLDY    27  20  75 NW22      30.02R WCI  13
SISSETON         N/A     20  16  84 N24G35    29.95S WCI   3
ABERDEEN       CLOUDY    28  18  66 N20G31    30.03R WCI  15
MITCHELL       MOCLDY    29  22  75 NW15      30.05R WCI  18
PIERRE         CLEAR     33  16  49 NW21G32   30.14R WCI  21
MOBRIDGE       CLOUDY    35  16  45 NW26G41   30.07S WCI  22
RAPID CITY     CLEAR     32  10  40 NW32G40   30.25S WCI  17
$$

  *****  SOME WEATHER IN NEARBY STATES *****

CITY           SKY/WX    TMP DP  RH WIND       PRES   REMARKS
GLASGOW MT     CLEAR     27  17  66 NW9       30.40R WCI  18
GREAT FALLS MT CLEAR     31  16  54 SW10      30.41F WCI  22
CHEYENNE WY    CLEAR     20  13  74 N15       30.32R WCI   6
SCOTTSBLUFF NE PTCLDY    27  14  58 NW15      30.36R WCI  15
OMAHA NE       LGT SNOW  33  28  81 NW30G39   29.98S WCI  19
DES MOINES IA  FLURRIES  34  28  79 NW22G33   29.86R WCI  22
DAVENPORT IA   CLEAR     33  27  78 W13       29.77F WCI  24
CHICAGO IL     PTCLDY    35  27  72 W12       29.72F
EAU CLAIRE WI  LGT SNOW  27  22  81 W10       29.64R WCI  17
LA CROSSE WI   CLOUDY    35  28  75 NW17G25   29.65R WCI  25
$$

  *****  SOME NATIONAL WEATHER *****

CITY           SKY/WX    TMP DP  RH WIND       PRES   REMARKS
LA GUARDIA NY  CLOUDY    40  31  70 NE10      29.96F
RALEIGH NC     CLOUDY    41  22  46 VRB7      29.86S
ATLANTA GA     PTCLDY    45  21  38 W7        29.99S
NEW ORLEANS LA CLEAR     49  31  49 SW12      30.18S
OKLAHOMA CITY  PTCLDY    46  22  38 NW20G25   30.24R
ALBUQUERQUE NM CLEAR     45  18  34 N8        30.36R
SALT LAKE CITY PTCLDY    31  26  82 NW9       30.63R HAZE    WCI  23
LOS ANGELES CA CLEAR     71  23  16 CALM      30.09R
BOISE ID       CLEAR     39  33  79 CALM      30.63R
SEATTLE WA     PTCLDY    45  37  73 N8        30.52S
$$

*** WEATHER ACROSS MANITOBA...SASKATCHEWAN AND ONTARIO ***
                ***ONTARIO***

CITY           SKY/WX    TMP DP  RH WIND       PRES   REMARKS
GERALDTON      FLURRIES   1  -4  78 NE13      29.75R WCI -16
THUNDER BAY    LGT SNOW  14  10  85 N6        29.66R WCI   5
SIOUX LOOKOUT  LGT SNOW   7   3  85 NE6       29.76R WCI  -3
TORONTO        MOCLDY    39  32  75 E9        29.83F
BIG TROUT LK   CLEAR    -11 -17  77 E9        30.06F WCI -29
PICKLE LAKE    NOT AVBL
DRYDEN         FLURRIES  10   9  92 N8        29.74R WCI  -1
KENORA         LGT SNOW   7   1  78 NW17G25   29.81R DRFTSNOWWCI -12
$$
                *** MANITOBA***

CITY           SKY/WX    TMP DP  RH WIND       PRES   REMARKS
BRANDON        CLOUDY    19  12  73 N24G35    30.11R WCI   2
DAUPHIN        FLURRIES  19  12  73 NW12      30.16R WCI   7
ISLAND LAKE    FLURRIES   0  -6  78 NW6       30.02F WCI -12
PILOT MOUND      N/A     16  10  79 NW22G28     N/A  WCI  -2
THE PAS        FLURRIES  12   5  73 NW15      30.19R WCI  -4
THOMPSON       LGT SNOW  -2  -8  78 N8        30.12  WCI -17
WINNIPEG       LGT SNOW   9   3  78 N23G29    30.05R BLWGSNOWWCI -12
LYNN LAKE      FLURRIES   1  -2  85 NW12G20   30.14R WCI -15
CHURCHILL      FLURRIES  -8 -13  77 S5        30.20R WCI -19
GILLAM         LGT SNOW  -8 -13  77 N6        30.13R WCI -21
$$
                ***SASKATCHEWAN***

CITY           SKY/WX    TMP DP  RH WIND       PRES   REMARKS
ESTEVAN        PTCLDY    25  19  80 NW20G28   30.24R WCI  11
KINDERSLEY     PTCLDY    19  16  86 W8        30.36S WCI   9
LLOYDMINSTER   PTCLDY    21  16  79 W14       30.33R WCI   8
PRINCE ALBERT  CLEAR     21  16  79 N9        30.27R WCI  11
REGINA         CLEAR     25  19  80 NW16G22   30.28S WCI  12
YORKTON        CLEAR     21  16  79 NW23G30   30.17R WCI   5
N. BATTLEFORD  PTCLDY    25  18  74 W9        30.34R WCI  15
LA RONGE       CLEAR     12   5  73 W8        30.26R WCI   1
SASKATOON      CLEAR     21  16  79 NW10      30.32S WCI  10
SWIFT CURRENT  CLEAR     25  18  74 W13       30.34S WCI  13
$$
NOTE: THESE ARE AUTOMATED STATIONS WITH LIMITED QUALITY CONTROL
      "FAIR" INDICATES FEW OR NO CLOUDS BELOW 12,000 FEET WITH NO
      SIGNIFICANT WEATHER AND/OR OBSTRUCTIONS TO VISIBILITY.
      SKY/WX - SKY CONDITION AND SIGNIFICANT WEATHER.
      TMP - AIR TEMPERATURE.    DP   - DEWPOINT TEMPERATURE.
      RH  - RELATIVE HUMIDITY.  PRES - PRESSURE.
      HX  - HEAT INDEX.         WCI  - WIND CHILL INDEX.
$



USA.gov is the U.S. government's official web portal to all federal, state and local government web resources and services.